Reflectivity
-20 -20 -20 -20 -20 -20 -20 -20 -20 -20 -20 -20 -20 -20 -20 -20 -20 11 -20 -20 -20 -20 -20 -20 -20 -20 -20 -20 -20 -20 -20 -20 -20 -20 -20 -20 -20 -20 -20 -20 -20 -20 -3 -20 -20 -20 -20 -20 -20
-20 -20 -20 -20 -20 -20 -20 -20 -20 -20 -20 -20 -20 -20 -20 -20 -20 -20 -20 -20 -20 -20 -20 -20 -20 -20 -20 -20 -20 -20 -20 -20 -20 -20 -20 -20 -20 -20 -20 -20 -20 -20 -20 -20 -20 -20 -20 -20 -20
-20 -20 -20 -20 -20 -20 -20 -20 -20 -20 -20 -20 -20 -20 -20 -20 -20 -20 -20 -20 -20 -20 -20 -20 -20 -20 -20 -7 -17 -19 -20 -20 -20 -20 -20 -20 -20 -20 -20 -20 -20 -20 -20 -20 -20 1 -3 -20 -20
-20 -20 -20 -20 -20 -20 -20 -20 -20 -20 -20 -20 -20 -20 -20 -20 -20 -20 -20 -20 -20 -20 -20 -20 -20 -20 -18 -20 -20 -20 -20 -20 -20 -20 -20 -20 -20 -20 -20 -20 -20 -20 -20 -20 -20 2 -20 -20 -20
-20 -20 -20 -20 -20 -20 -20 -20 -20 -20 -20 -20 -20 -20 -20 -20 -20 -20 -20 -20 -20 -20 -17 -16 -20 -20 -20 -20 -20 -20 -20 -20 -20 -20 -20 -20 -20 -20 -20 -20 -20 -20 -20 -20 -20 -2 -20 -20 -20
-20 -20 -20 -20 -20 -20 -20 -20 -20 -20 -20 -20 -20 -20 -20 -20 -20 -20 -20 -20 -20 -20 -20 -20 -20 -20 -20 -20 -20 -20 -8 -20 -20 -20 -20 -20 -20 -20 -20 -20 -20 -20 -20 -20 -20 -20 -20 -20 -20
-20 -20 -20 -20 -20 -20 -20 -20 -20 -20 -20 -20 -20 -20 -20 -20 -20 -20 -20 -20 -20 -20 -20 -12 -18 -13 -20 -20 -20 -20 -20 -20 -20 -20 -20 -20 -20 6 5 -13 -20 -20 -20 -20 -20 -20 -20 -20 -20
-20 -20 -20 -20 -20 -20 -20 -20 -20 -20 -20 -20 -20 -20 -20 -20 -20 -20 -20 -20 -20 -14 -12 -19 2 -0 -3 -20 -20 -20 3 1 -2 2 -13 -20 -20 -20 -20 -20 -20 -20 -20 -20 -20 -20 -20 -20 -20
-20 -20 -20 -20 -20 -20 -20 -20 -20 -20 -20 -20 -20 -20 -20 -20 -20 -20 -20 -20 -17 -16 -9 1 3 2 -17 -19 -15 -7 2 -20 -18 -3 -20 -12 -7 -13 -17 -20 -20 -20 -20 -20 -20 -20 -20 -20 -20
-20 -20 -20 -20 -20 -20 -20 -20 -20 -20 -20 -20 -20 -20 -20 -20 -20 -20 -20 -20 -20 -20 7 -2 2 0 -19 -20 -20 -20 -20 -20 -20 -18 2 10 -6 -19 -20 -20 -20 -20 -20 -20 -20 -20 -20 -20 -20
-20 -20 -20 -20 -20 -20 -20 -20 -20 -20 -20 -20 -20 -20 -20 -20 -20 -20 -20 -20 -20 -20 -20 4 8 1 -20 -20 -20 -20 -20 -20 -20 -20 -20 -20 -20 -20 -20 -20 -20 -20 -20 -20 -20 -20 -20 -20 -20
-20 -20 -20 -20 -20 -20 -20 -20 -20 -20 -20 -20 -20 -20 -20 -20 -20 -20 -20 -20 -20 -20 -20 -20 -20 -10 -20 -20 -20 -20 -20 -20 -20 -20 -20 -20 -20 -20 -20 -20 -20 -20 -20 -20 -20 -20 -20 -20 -20
-20 -20 -20 -20 -20 -20 -20 -20 -20 -20 -20 -14 -20 -20 -20 -20 -20 -20 -20 -20 -20 -20 -20 -20 -20 -20 -20 -20 -20 -20 -20 -20 -20 -20 -20 -20 -20 -20 -20 -20 -20 -20 -20 -20 -20 -20 -20 -20 -20
-20 -20 -20 -20 -20 -20 -20 -20 -20 -20 -20 -20 -20 -20 -20 -20 -20 -20 -20 -20 -20 -20 -20 -20 -20 -20 -20 -20 -20 -20 -20 -20 -20 -20 -20 -20 -20 -20 -20 -20 -20 -20 -20 -20 -20 -20 -20 -20 -20
-20 -20 -20 -20 -20 -20 -20 -20 -20 -10 -16 -20 -20 -20 -20 -20 -20 -20 -20 -20 -20 -20 -20 -20 -20 -20 -20 -20 -20 -20 -20 -20 -20 -20 -20 -20 -20 -20 -20 -20 -20 -20 -20 -20 -20 -20 -20 -20 -20
-20 -20 -20 -20 -20 -20 -20 -20 -16 -18 -20 -20 -20 -20 -20 -20 -20 -20 -20 -20 -20 -20 -20 -20 -20 -20 -20 -20 -20 -20 -20 -20 -20 -20 -20 -20 -20 -20 -20 -20 -20 -20 -20 -20 -20 -20 -20 -20 -20
-20 -20 -20 -20 -20 -20 -20 -20 2 -20 -20 -20 -20 -20 -20 -20 -20 -20 -20 -20 -20 -20 -20 -20 -20 -20 -20 -20 -20 -20 -20 -20 -20 -20 -20 -20 -20 -20 -20 -20 -20 -20 -20 -20 -20 -20 -20 -20 -20
-20 -20 -20 -20 -20 -20 -20 -20 -20 -20 -20 -20 -20 -20 -20 -20 -20 -20 -20 -20 -20 -20 -20 -20 -20 -20 -20 -20 -20 -20 -20 -20 -20 -20 -20 -20 -20 -20 -20 -20 -20 -20 -20 -20 -20 -20 -20 -20 -20
-20 -20 -20 -20 -20 -20 -20 -20 -20 -20 -20 -20 -20 -20 -20 -20 -20 -20 -20 -20 -20 -20 -20 -20 -20 -20 -20 -20 -20 -20 -20 -20 -20 -20 -20 -20 -20 -20 -20 -20 -20 -20 -20 -20 -20 -20 -20 -20 -20
-20 -20 -20 -20 -20 -20 -20 -20 -20 -20 -20 -20 -20 -20 -20 -20 -20 -20 -20 -20 -20 -20 -20 -20 -20 -20 -20 -20 -20 -20 -20 -20 -20 -20 -20 -20 -20 -20 -20 -20 -20 -20 -20 -20 -20 -20 -20 -20 -20
-20 -20 -20 -20 -20 -20 -20 -20 -20 -20 -20 -20 -20 -20 -20 -20 -20 -20 -20 -20 -20 -20 -20 -20 -20 -20 -20 -20 -20 -20 -20 -20 -20 -20 -20 -20 -20 -20 -20 -20 -20 -20 -20 -20 -20 -20 -20 -20 -20
-20 -20 -20 -20 -20 -20 -20 -20 -20 -20 -20 -20 -20 -20 -20 -20 -20 -20 -20 -20 -20 -20 -20 -20 -20 -20 -20 -20 -20 -20 -20 -20 -20 -20 -20 -20 -20 -20 -20 -20 -20 -20 -20 -20 -20 -20 -20 -20 -20
-20 -20 -20 -20 -20 -20 -20 -20 -20 -20 -20 -20 -20 -20 -20 -20 -20 -20 -20 -20 -20 -20 -20 -20 -20 -20 -20 -20 -20 -20 -20 -20 -20 -20 -20 -20 -20 -20 -20 -20 -20 -20 -20 -20 -20 -20 -20 -20 -20
-20 -20 -20 -20 -20 -20 -20 -20 -20 -20 -20 -20 -20 -20 -19 -16 -18 -20 -20 -20 -20 -20 -20 -20 -20 -20 -20 -20 -20 -20 -20 -20 -20 -20 -20 -20 -20 -20 -20 -20 -20 -20 -20 -20 -20 -20 -20 -20 -20
-20 -20 -20 -20 -20 -20 -20 -20 -20 -20 -20 -20 -20 -20 -20 -20 -20 -20 -20 -20 -20 -20 -20 -20 -20 -20 -20 -20 -20 -20 -20 -20 -20 -20 -20 -13 5 -20 -20 -20 -20 -20 -20 -20 -20 -20 -20 -20 -20
-20 -20 -20 -10 -20 -20 -20 -17 -20 -19 -20 -20 -20 -20 -20 -20 -20 -20 -20 -20 -20 -20 -20 -20 -20 -20 -20 -20 -20 -20 -20 -20 -20 -20 3 -15 -20 -20 -20 -20 -20 -20 -20 -20 -20 -20 -20 -20 -20
-20 -20 -20 -5 -20 -20 -20 -20 5 -4 2 -19 -20 -20 -20 -20 -20 -20 -20 -20 -20 -20 -20 -20 -20 -20 -20 -20 -20 -20 -20 -20 -20 -14 -20 -20 -13 -3 -20 -20 -20 -20 -20 -20 -20 -20 -20 -20 -20
-20 -20 -19 7 -20 -20 -20 -20 -10 22 9 -20 -20 -20 -20 -20 -20 -9 -20 -20 -20 -20 -20 -20 -20 -20 -20 -20 -20 -20 -20 -6 12 -20 -6 -0 7 1 -20 -20 -20 -20 -20 -20 -20 -20 -20 -20 -20
-20 -20 -20 -14 -7 2 -20 -20 -16 -20 -19 -20 -20 -20 -20 -20 -20 -20 -20 -20 -20 -20 -20 -20 -20 -20 -20 -20 -20 -20 -17 -8 -9 7 2 2 1 -20 -20 -20 -20 -20 -20 -20 -20 -20 -20 -20 -20
-20 -20 -20 -20 -20 -20 1 -14 6 -20 -20 -20 -20 -20 -20 -20 -20 -20 -20 -20 -20 -20 -20 -20 -17 -6 -3 -17 8 24 12 22 5 -7 -8 -20 -20 -20 -20 -20 -20 -20 -20 -20 -20 -20 -20 -20 -20
Wind_Speed
16 14 9 8 9 9 15 5 7 6 6 5 7 2 17 18 15 8 11 9 17 16 13 12 10 10 9 9 7 8 9 9 9 10 10 9 9 8 6 6 5 5 5 4 4 3 2 2 2
12 10 8 9 10 14 9 12 7 7 11 5 5 4 5 13 16 15 10 13 15 15 14 12 10 10 10 10 11 9 9 10 9 10 11 10 9 8 6 5 3 2 2 2 2 2 2 2 1
14 11 11 11 14 15 10 4 8 10 8 12 6 3 7 8 9 7 14 13 14 13 13 13 10 11 10 11 11 11 9 9 10 9 10 10 9 7 6 4 2 1 1 2 3 3 0 1 2
7 9 8 11 18 16 8 4 1 10 9 8 12 11 7 7 3 11 14 13 13 11 13 10 9 8 11 9 10 10 9 8 9 8 8 9 9 7 6 4 2 2 3 4 4 4 3 4 5
9 9 12 18 18 13 2 4 8 13 11 10 10 12 9 6 5 15 14 12 13 14 13 13 10 10 11 11 10 10 9 8 8 7 7 7 7 6 5 3 3 3 4 5 6 6 5 6 7
10 7 13 16 17 8 3 5 10 12 10 11 6 13 8 12 13 13 13 13 12 13 14 13 13 12 13 13 12 11 9 8 8 8 8 8 8 8 7 5 2 2 4 5 5 6 7 7 8
13 12 16 20 17 8 9 6 12 12 11 11 5 12 9 14 13 12 13 12 12 12 13 13 13 14 15 14 13 12 10 10 9 8 9 11 11 11 11 11 9 8 5 4 3 4 5 5 7
9 11 20 19 12 15 8 5 13 13 15 8 6 7 10 16 15 14 15 13 12 10 10 10 12 11 12 11 13 13 12 12 11 9 9 9 9 9 7 11 10 8 7 6 5 4 5 6 7
10 10 14 17 11 9 10 10 10 14 7 9 6 11 11 22 17 16 15 15 13 11 12 10 10 9 10 11 11 13 12 9 10 10 6 7 4 3 7 10 7 8 7 7 6 6 7 9 14
11 13 17 11 10 8 4 11 11 11 12 10 9 6 17 19 18 18 17 16 15 14 14 11 10 10 9 8 8 7 6 6 5 4 3 5 3 5 6 6 3 3 7 6 6 9 11 13 8
13 16 17 7 6 8 14 8 15 13 17 15 16 14 17 19 18 17 16 16 15 15 11 14 9 8 9 8 6 5 4 5 5 6 4 4 2 1 1 1 1 3 1 4 6 7 6 11 8
11 15 13 12 2 10 12 13 10 13 17 10 16 19 17 20 19 19 17 16 16 14 13 13 15 11 8 8 5 6 5 5 5 6 4 2 2 2 3 4 4 4 5 7 7 6 8 9 10
15 17 11 9 10 11 13 12 12 14 13 3 5 16 19 18 19 17 16 15 15 15 13 12 10 9 8 7 7 7 6 5 6 6 7 4 4 3 4 4 4 4 5 5 6 6 7 9 9
12 10 13 14 14 14 14 15 17 14 14 8 13 16 18 18 18 16 15 16 16 15 13 12 12 10 9 8 9 7 6 7 6 6 7 7 6 5 4 4 5 5 6 7 6 7 7 8 8
13 16 16 18 18 17 12 18 21 17 17 15 15 16 18 18 18 18 16 15 15 14 14 13 12 11 11 11 9 7 6 6 6 7 8 8 8 6 5 5 5 6 6 7 7 8 8 8 8
16 17 16 11 5 14 13 17 17 21 21 18 19 17 17 19 18 18 15 15 14 14 14 13 11 12 11 10 8 7 7 6 6 6 7 9 8 7 5 5 6 6 6 7 8 8 8 8 8
16 16 18 11 14 6 12 13 16 10 22 18 19 19 17 17 17 15 16 15 14 14 15 13 13 12 11 10 9 8 8 6 6 6 6 8 8 7 5 5 6 6 5 6 7 8 7 8 8
18 15 14 16 8 11 15 16 16 8 12 15 18 19 18 17 18 16 15 14 13 13 14 13 12 13 12 9 9 7 7 7 6 6 6 6 7 6 4 5 6 5 6 6 8 8 8 8 9
18 16 19 19 18 5 14 19 17 15 17 16 17 19 18 18 18 17 14 13 13 13 15 15 14 13 10 9 8 8 7 7 6 6 7 7 6 6 6 5 6 6 6 8 9 8 9 6 10
17 18 19 20 20 18 17 21 19 18 20 20 20 19 18 18 19 20 18 16 15 14 15 14 14 13 10 8 7 7 7 6 7 6 7 7 7 8 7 6 6 7 4 7 8 9 7 5 8
19 21 19 21 20 21 18 26 26 22 27 23 21 21 19 19 20 21 19 18 16 15 15 15 15 15 10 9 7 7 7 7 6 7 6 7 7 7 6 6 6 6 6 6 7 8 9 7 6
22 18 19 16 16 16 18 20 19 16 12 24 22 20 20 19 19 21 20 18 16 15 14 15 15 14 10 10 9 11 8 8 7 5 7 6 7 6 6 6 7 6 5 6 6 7 7 7 6
22 12 13 15 16 19 20 16 18 17 14 19 15 15 18 17 18 21 20 18 16 14 12 13 13 13 12 12 10 9 8 9 7 6 8 7 6 7 6 7 7 6 5 6 7 7 8 6 7
16 10 14 13 13 18 17 19 26 9 6 8 7 10 9 11 11 17 19 16 15 14 14 13 13 13 12 11 9 9 8 10 8 8 6 5 5 5 6 6 6 6 5 6 5 6 7 7 6
16 14 11 13 12 18 11 16 16 11 8 9 6 6 4 5 8 9 17 15 14 14 13 11 13 12 11 10 9 8 9 9 9 8 6 6 4 4 5 5 6 5 5 5 4 5 5 6 6
15 19 11 11 14 15 14 20 3 10 9 8 6 4 1 3 1 5 11 13 13 13 13 12 13 12 12 11 10 9 9 6 6 6 5 4 5 4 5 5 5 5 4 5 5 5 4 5 5
14 18 18 16 15 9 9 18 2 10 10 7 8 5 5 2 5 5 9 12 12 13 13 12 13 12 11 11 10 10 8 9 8 8 7 5 6 5 5 5 5 5 5 5 4 5 5 4 4
18 4 10 7 7 13 14 18 4 7 5 6 7 7 5 2 3 6 8 12 12 13 13 13 12 12 12 11 10 8 9 9 8 7 8 7 6 6 5 5 5 4 4 5 4 3 5 5 4
12 17 11 8 14 9 12 5 6 9 7 8 8 6 6 4 0 5 7 9 11 12 12 10 10 12 11 10 10 10 9 9 9 8 8 6 6 5 5 5 5 5 4 5 5 4 4 4 5
11 13 18 12 13 13 13 15 9 6 5 7 7 6 8 5 5 2 7 9 11 11 12 12 10 10 10 10 9 9 9 8 8 8 8 7 6 5 5 5 5 4 4 5 5 5 5 5 6
Wind_Direction
276 232 242 262 244 230 267 208 330 158 201 36 73 349 78 41 13 55 129 107 113 127 126 138 122 122 114 99 81 85 94 103 114 120 123 126 132 142 141 142 149 160 161 163 162 164 144 102 80
296 284 242 273 254 261 263 91 197 173 80 142 109 139 124 69 74 105 119 140 137 132 140 137 132 132 134 121 110 95 95 103 105 111 112 116 122 128 128 126 125 126 156 180 195 200 214 162 149
264 268 268 238 241 266 310 109 195 92 153 165 123 330 101 98 64 77 114 131 136 137 122 117 134 134 131 126 119 113 103 104 102 109 118 120 121 122 121 115 113 119 243 251 248 246 209 224 228
273 220 238 257 268 270 284 91 175 151 177 194 169 112 87 44 57 128 131 140 130 111 108 123 123 109 108 107 111 104 101 102 101 103 114 119 124 129 134 138 157 215 232 249 270 270 202 220 223
231 261 263 255 264 271 312 278 202 178 177 198 202 132 97 105 133 136 137 130 127 116 122 119 100 106 105 102 98 97 104 111 111 113 119 124 128 136 152 166 202 234 262 280 290 288 257 234 245
256 241 270 264 267 194 211 232 230 201 165 194 201 124 107 144 150 137 136 134 128 124 120 123 102 90 90 94 90 88 89 92 99 95 103 97 98 91 83 67 31 317 315 309 305 307 297 279 256
253 272 265 281 291 282 205 227 238 200 184 169 215 166 109 169 139 148 133 134 133 132 130 133 124 107 90 83 84 83 81 85 85 84 87 87 86 86 83 72 60 54 48 41 11 335 318 299 288
284 273 268 270 266 273 129 214 251 224 195 148 189 168 164 161 157 147 143 140 137 129 118 113 141 132 125 111 90 86 78 76 79 78 93 102 98 96 105 121 49 41 39 37 25 2 323 290 257
255 257 259 267 262 266 127 228 202 261 171 166 191 359 109 143 160 157 151 150 146 143 127 131 133 129 126 121 116 115 117 126 130 129 154 154 108 150 103 59 49 31 12 360 349 328 303 281 263
235 251 263 13 350 303 298 247 191 229 217 192 177 125 119 156 168 168 167 157 160 154 144 135 143 137 144 123 128 112 99 82 81 78 125 102 92 45 55 97 75 42 357 292 308 283 273 257 297
254 251 288 324 286 284 280 221 261 213 230 197 198 163 160 170 178 178 175 165 160 153 151 135 134 150 149 136 145 150 143 123 98 70 49 73 109 65 119 70 46 346 15 328 314 305 309 347 321
264 259 275 277 216 263 256 267 217 237 247 210 208 162 173 179 186 184 183 165 152 155 152 149 154 164 146 151 137 127 123 117 103 78 43 62 69 55 10 18 344 350 357 350 343 331 339 319 323
255 262 267 264 256 256 266 262 255 234 245 224 257 153 181 189 192 192 189 152 156 154 149 146 141 141 138 129 117 110 121 92 97 88 55 36 54 44 25 31 14 12 358 357 341 338 333 323 320
315 290 280 264 257 248 246 247 244 245 238 214 229 187 193 197 196 192 183 168 166 154 154 145 140 141 139 119 118 113 104 116 89 76 62 50 51 20 38 31 22 13 1 345 338 345 325 325 312
277 271 262 246 237 241 241 246 245 231 221 220 213 203 201 199 203 197 185 173 177 163 151 151 141 139 135 129 125 109 109 107 101 94 70 60 41 51 15 35 18 12 355 345 347 336 333 323 320
256 256 268 252 209 225 238 253 237 223 241 215 217 217 211 203 209 195 177 179 172 163 156 151 144 142 144 127 128 117 113 105 98 89 81 66 57 34 41 39 30 1 3 360 350 343 335 330 325
228 260 251 219 178 245 206 256 248 282 202 218 234 223 216 212 210 193 182 184 180 161 158 154 148 143 138 131 113 109 118 108 96 92 87 76 62 45 38 37 29 359 15 14 354 343 339 329 327
256 242 221 251 214 211 238 241 255 256 265 223 239 241 223 209 208 190 179 188 184 166 160 156 155 149 145 138 137 130 128 123 115 102 87 79 74 57 37 57 34 10 18 10 358 349 346 326 340
274 286 286 286 286 254 265 264 259 257 211 232 237 238 228 213 202 184 179 180 187 167 171 168 157 161 159 159 154 149 140 127 116 102 98 87 76 72 48 43 36 16 36 11 8 351 349 358 355
265 263 261 269 273 272 262 259 260 256 248 232 230 231 231 214 195 178 183 185 192 179 176 172 168 170 180 169 167 144 138 130 114 106 95 79 70 57 62 46 40 25 29 35 19 5 354 7 18
251 257 265 277 289 286 268 267 258 247 246 241 222 236 226 222 200 179 188 192 192 186 183 177 176 180 182 145 126 129 118 133 143 141 115 86 79 69 62 59 54 30 21 24 24 15 16 347 22
253 250 262 256 269 269 277 285 276 281 247 217 227 215 231 213 205 181 188 191 194 191 187 187 177 179 166 167 162 165 167 166 141 129 115 108 93 77 69 62 58 53 42 25 16 22 2 6 11
259 289 287 266 263 275 260 265 268 263 249 238 198 226 222 224 198 188 185 189 190 185 185 200 180 179 163 186 174 181 189 114 138 127 139 110 101 81 69 58 53 48 45 37 20 21 16 17 2
275 259 246 253 256 256 258 252 276 299 334 312 189 165 218 228 214 187 170 183 188 182 185 195 186 182 173 186 186 192 157 154 153 154 151 135 117 104 75 72 64 48 44 30 28 27 26 19 21
240 220 242 225 214 245 260 247 248 139 102 68 99 153 174 222 223 190 162 187 188 180 185 189 196 184 174 177 174 170 155 163 157 160 141 142 129 109 83 79 69 58 43 40 28 37 35 34 29
217 223 234 251 255 275 293 240 249 78 70 78 60 24 99 118 182 205 182 187 188 177 182 191 194 173 172 167 156 146 149 151 131 124 133 114 111 100 102 92 83 74 52 44 23 38 34 22 19
249 217 252 282 284 287 264 285 210 109 97 67 63 68 70 106 150 194 184 183 185 181 186 193 187 166 163 161 152 156 149 144 132 125 130 120 122 124 110 102 89 65 62 49 40 49 10 16 19
248 7 234 200 235 234 252 257 329 47 90 120 93 89 100 135 191 201 202 182 187 185 181 191 176 169 167 157 150 150 144 132 133 136 131 119 127 122 138 109 96 93 67 58 46 41 36 13 28
202 238 242 271 228 274 278 282 36 63 41 74 86 84 78 78 89 204 209 186 190 173 176 181 181 169 154 158 151 147 140 143 146 138 126 141 121 149 122 109 104 77 79 61 64 57 38 34 31
291 292 231 236 242 246 253 269 95 77 74 35 37 28 3 22 37 185 192 183 180 175 170 178 174 154 164 157 150 146 145 154 146 136 135 138 137 145 126 120 112 125 83 68 66 54 40 33 42